User: anonymous
Location: Meeteetse
(44.0232°N, 108.9875°W)
Time: 01:50:26
(UTC-06:00)
Language:

IGS 1A - Orbit

View from above orbital plane
View from above orbital plane
View from above satellite
View from above satellite

Ground track
Ground track

The orbit data is extracted from the following two-line orbital elements,

1 27698U 03009A   14112.88556765 0.00040000  00000-0  32853-3 0    04
2 27698  97.3208 197.2315 0001000 200.3292 159.6706 15.70423922    09
Epoch (UTC): 22 April 2014 21:15:13
Eccentricity: 0.0001000
inclination: 97.3208°
perigee height: 357 km
apogee height: 358 km
right ascension of ascending node: 197.2315°
argument of perigee: 200.3292°
revolutions per day: 15.70423922
mean anomaly at epoch: 159.6706°
orbit number at epoch: 0

The dashed part of the orbit path shows where the satellite is in the earth's shadow,  

DLR